User: anonymous   Login
Location: Vallejo Observatory
(38.1221°N, 122.2109°W)
Time: 17:32:58
(UTC-08:00)
Language:

MOS 1 Rocket - Orbit

View from above orbital plane
View from above orbital plane
View from above satellite
View from above satellite

Ground track
Ground track

The orbit data is extracted from the following two-line orbital elements,

1 17528U 87018B   14328.51632574  .00000478  00000-0  11567-3 0  5312
2 17528 097.4447 019.5766 0152910 351.4123 135.4432 14.50161337464233
Epoch (UTC): 24 November 2014 12:23:30
Eccentricity: 0.0152910
inclination: 97.4447°
perigee height: 616 km
apogee height: 834 km
right ascension of ascending node: 19.5766°
argument of perigee: 351.4123°
revolutions per day: 14.50161337
mean anomaly at epoch: 135.4432°
orbit number at epoch: 46423

The dashed part of the orbit path shows where the satellite is in the earth's shadow,  

DLR